Location: Carrer del Canonge
(41.4901°N, 2.2931°E)
Time: 14:37:19
(UTC+00:00)

Meteor 2-13 Rocket - Pass Details

Date: 18 September 2020
Orbit: 936 x 958 km, 82.5° (Epoch: 28 October)

Event Time Altitude Azimuth Distance (km) Brightness Sun altitude
Rises 19:59:08 0° 353° (N) 3,648 7.9 -23.4°
Reaches altitude 10° 20:01:40 10° 356° (N) 2,698 7.2 -23.9°
Maximum altitude 20:07:50 72° 81° (E) 1,006 4.3 -24.9°
Enters shadow 20:09:02 57° 140° (SE) 1,115 4.4 -25.1°
